Terminal Aerodrome Forecast
Issued by NWS

Home | Current Version | Previous Version | Text Only | Print | Product List | Glossary On
Versions: 1 2 3 4 5 6 7 8 9 10 11 12 13 14 15 16 17 18 19 20 21 22 23 24 25 26 27 28 29 30 31 32 33 34 35 36 37 38 39 40 41 42 43 44 45 46 47 48 49 50
000
FTUS45 KGJT 262326
TAFASE
TAFASE
TAF
KASE 262326Z 2700/2724 VRB03KT P6SM VCSH FEW080 OVC100
      TEMPO 2700/2703 4SM -RA BKN040
     FM270300 19005KT P6SM VCSH SCT050 BKN080
     FM270900 22003KT P6SM SCT120
     FM271200 VRB04KT P6SM BKN100
     FM271800 33010KT P6SM BKN100=

USA.gov is the U.S. government's official web portal to all federal, state and local government web resources and services.